Tracking 30107 objects as of 25-Jan-2025
HD Live streaming from Space Station
objects crossing your sky now

COSMOS 84

Track COSMOS 84 now!
10-day predictions
COSMOS 84 is classified as:


NORAD ID: 1574
Int'l Code: 1965-070E
Perigee: 1,477.6 km
Apogee: 1,575.2 km
Inclination: 56.1 °
Period: 116.4 minutes
Semi major axis: 7897 km
RCS: 0.553 m2 (medium)
Launch date: September 3, 1965
Source: Commonwealth of Independent States (former USSR) (CIS)
Launch site: TYURATAM MISSILE AND SPACE COMPLEX (TTMTR)
Your satellite tracking list
Your tracking list is empty




NASA's NSSDC Master Catalog

Two Line Element Set (TLE):
1  1574U 65070E   25025.22864019 -.00000084  00000-0  60378-4 0  9992
2  1574  56.0562 324.5762 0061780 287.6296 222.8329 12.37029414684014
Source of the keplerian elements: AFSPC